Home > Weather > Canvey Island > Past weeks

Flag for United Kingdom Past Weather in Canvey Island, England, United Kingdom — Yesterday and Last 2 Weeks

Now
68 °F

Passing clouds.


Feels Like: 68 °F
Forecast: 62 / 72 °F
Wind: 8 mph from West

Location: Southend Airport-On-Sea

Current Time: Jul 26, 2016 at 11:16:56 AM

Latest Report: Jul 26, 2016 at 10:50 AM


Visibility: N/A

Pressure: 30.15 "Hg

Humidity: 53%

Dew Point: 50 °F

Location of Canvey IslandLocation

Past Weather in Canvey Island — Graph

°F

Canvey Island Temperature Yesterday

Maximum temperature yesterday: 75 °F (at 3:50 PM)
Minimum temperature yesterday: 61 °F (at 4:50 AM)
Average temperature yesterday: 69 °F

High & Low Weather Summary for the Past Weeks

 TemperatureHumidityPressure
High86 °F (Jul 20, 5:20 PM)94% (Jul 13, 3:50 AM)30.30 "Hg (Jul 13, 3:50 AM)
Low50 °F (Jul 15, 4:50 AM)34% (Jul 18, 2:50 PM)29.74 "Hg (Jul 11, 10:20 AM)
Average67 °F67%30.07 "Hg
* Reported Jul 11 10:20 AM — Jul 26 10:20 AM, Canvey Island, Weather by CustomWeather, © 2016

Note: Actual official high and low records may vary slightly from our data, if they occured in-between our weather recording intervals... More about our weather records

Advertising

Canvey Island Weather History for the Previous 24 Hours

Scroll right to see more
 ConditionsComfort  
Time TempWeatherWind HumidityBarometerVisibility
10:20 AM
Tue, Jul 26
68 °FPassing clouds.7 mph56%30.15 "HgN/A
9:50 AM66 °FPassing clouds.5 mph60%30.15 "HgN/A
9:20 AM64 °FPassing clouds.3 mph64%30.15 "HgN/A
8:50 AM64 °FPassing clouds.3 mph68%30.15 "HgN/A
8:20 AM63 °FSunny.5 mph68%30.15 "Hg10 mi
7:50 AM63 °FSunny.6 mph73%30.15 "Hg10 mi
7:20 AM61 °FSunny.6 mph72%30.15 "Hg10 mi
6:50 AM61 °FPassing clouds.6 mph77%30.15 "HgN/A
6:20 AM61 °FScattered clouds.3 mph77%30.15 "HgN/A
5:50 AM57 °FPassing clouds.2 mph82%30.15 "HgN/A
5:20 AM59 °FPassing clouds.5 mph77%30.12 "HgN/A
4:50 AM59 °FClear.3 mph77%30.12 "Hg10 mi
3:50 AM61 °FPassing clouds.5 mph72%30.12 "HgN/A
2:50 AM64 °FPassing clouds.6 mph64%30.12 "HgN/A
12:50 AM66 °FPassing clouds.3 mph60%30.12 "HgN/A
12:20 AM66 °FPassing clouds.5 mph60%30.12 "HgN/A
11:50 PM
Mon, Jul 25
66 °FClear.3 mph56%30.12 "Hg10 mi
11:20 PM66 °FClear.6 mph56%30.12 "Hg10 mi
10:50 PM64 °FClear.3 mph56%30.12 "Hg10 mi
10:20 PM68 °FClear.5 mph60%30.12 "Hg10 mi
9:50 PM64 °FSunny.3 mph60%30.12 "Hg10 mi
9:20 PM66 °FSunny.3 mph52%30.12 "Hg10 mi
8:50 PM66 °FSunny.6 mph52%30.09 "Hg10 mi
8:20 PM70 °FSunny.6 mph50%30.09 "Hg10 mi
7:50 PM72 °FSunny.6 mph44%30.09 "Hg10 mi
7:20 PM75 °FSunny.10 mph44%30.09 "Hg10 mi
6:50 PM72 °FSunny.10 mph44%30.07 "Hg10 mi
6:20 PM73 °FSunny.13 mph41%30.07 "Hg10 mi
5:50 PM73 °FSunny.12 mph41%30.07 "Hg10 mi
5:20 PM73 °FSunny.13 mph38%30.07 "Hg10 mi
4:50 PM73 °FSunny.10 mph41%30.07 "Hg10 mi
4:20 PM73 °FSunny.14 mph41%30.07 "Hg10 mi
3:50 PM75 °FSunny.14 mph39%30.07 "Hg10 mi
3:20 PM73 °FSunny.12 mph41%30.09 "Hg10 mi
2:50 PM73 °FSunny.15 mph41%30.09 "Hg10 mi
2:20 PM73 °FSunny.10 mph41%30.09 "Hg10 mi
1:50 PM72 °FPassing clouds.10 mph41%30.09 "HgN/A
1:20 PM73 °FPassing clouds.13 mph41%30.09 "HgN/A
12:50 PM72 °FPassing clouds.10 mph47%30.09 "HgN/A
12:20 PM72 °FPassing clouds.13 mph47%30.09 "HgN/A
11:50 AM72 °FPassing clouds.10 mph50%30.09 "HgN/A
11:20 AM68 °FScattered clouds.10 mph56%30.09 "HgN/A
Weather by CustomWeather, © 2016

See weather overviewHow to use our weather pages